Airfield :
LOGIN :

Register | Disclaimer

   EN    FR    IT 

 










Legend :    VFR   Marginal VFR   IFR   Intensive IFR   Very Intensive IFR
Visi :
Ceiling :
>= 8 km
>= 3000ft
5 to 8 km
1000 to 3000 ft
1500m to 5 km
500 to 1000 ft
800 to 1500m
200 to 500 ft
< 800m
< 200 ft
Symbols :   Thunderstorms  Fog  Heavy snow  Heavy precipitations  Wind > 20 kt
SIGMETs :     Misc.  Thunderstorms  Icing  Turbulence  Mountain Waves  Volcanic Ashes






- Airport Elevation : 915 ft
- IATA code : LUG


LSZA - Lugano

CURRENT METAR :
  • 240120Z AUTO VRB01KT 7000 NSC 15/15 Q1011

EXPIRED METARs :
  • 240050Z AUTO VRB02KT 9999 FEW014 15/15 Q1011
  • 240020Z AUTO 34003KT 320V020 9999 FEW048 15/15 Q1011
  • 232350Z AUTO VRB02KT 9999 NCD 15/15 Q1011
  • 232320Z AUTO VRB01KT 9999 NCD 16/15 Q1011
  • 232250Z AUTO VRB01KT 9999 FEW075 16/15 Q1011

Expired Forecast.
ATIS : +41 22 417 40 88



MET'MAP, your aeronautical weather chart ! - Copyright ORBIFLY December 2007 - Disclaimer

ORBIFLY MET'MAP TEAM :

Programming & Development : Alexandra Zaïnal
Concept & original design : Baudouin d'Aumeries
Assistance for programming : Marc-Olivier Méhu
Technical & hardware support : Manuel Goepfert

Contact : metmap@orbifly.com




SOURCES & CREDITS :

   NOAA